Clinton, AR

4:55 PM CST on January 19, 2017 (GMT -0600)
Clinton

Weather History for KCCA - October, 2012

Change the Weather History Date:

Friday, October 26, 2012

  Actual Average (KBVX) Record (KBVX)
Temperature  
Mean Temperature 50 °F -  
Max Temperature 57 °F 68 °F 86 °F (2014)
Min Temperature 42 °F 43 °F 26 °F (1961)
Degree Days  
Heating Degree Days 16    
Moisture  
Dew Point 36 °F    
Average Humidity 65    
Maximum Humidity 93    
Minimum Humidity 41    
Precipitation  
Precipitation 0.44 in - - ()
Sea Level Pressure  
Sea Level Pressure 30.22 in    
Wind  
Wind Speed 5 mph (North)    
Max Wind Speed 12 mph    
Max Gust Speed 24 mph    
Visibility 10 miles    
Events Rain , Thunderstorm    
Averages and records for this station are not official NWS values.
T = Trace of Precipitation, MM = Missing Value Source: NWS Daily Summary

Daily Weather History Graph

Daily Weather History Graph

Search for Another Location

Airport or City:

Trip Planner

Search our weather history database for the weather conditions in past years. The results will help you decide how hot, cold, wet, or windy it might be!

Date:

Astronomy

Oct. 26, 2012 Rise Set
Actual Time 7:26 AM CDT 6:20 PM CDT
Civil Twilight 7:00 AM CDT 6:46 PM CDT
Nautical Twilight 6:30 AM CDT 7:16 PM CDT
Astronomical Twilight 6:00 AM CDT 7:45 PM CDT
Moon 4:32 PM CDT (10/26) 4:28 AM CDT (10/26)
Length of Visible Light 11h 46m
Length of Day
10h 53m
Waxing Gibbous, 91% of the Moon is Illuminated
Oct 26
Waxing Gibbous
Oct 29
Full
Nov 6
Last Quarter
Nov 13
New
Nov 20
First Quarter

Hourly Weather History & Observations

Time (CDT) Temp. Windchill Dew Point Humidity Pressure Visibility Wind Dir Wind Speed Gust Speed Precip Events Conditions
12:55 AM 50.0 °F - 42.8 °F 76% 30.12 in 10.0 mi North 5.8 mph - N/A   Overcast
1:15 AM 50.0 °F - 42.8 °F 76% 30.14 in 4.0 mi NNW 9.2 mph 20.7 mph 0.16 in Rain , Thunderstorm Heavy Thunderstorms and Rain
1:35 AM 46.4 °F 43.5 °F 44.6 °F 93% 30.13 in 3.0 mi North 5.8 mph - 0.43 in Thunderstorm Drizzle
1:55 AM 46.4 °F 45.2 °F 44.6 °F 93% 30.15 in 8.0 mi NNE 3.5 mph - 0.44 in Rain Light Rain
2:15 AM 46.4 °F 45.2 °F 42.8 °F 87% 30.15 in 7.0 mi NNE 3.5 mph - N/A Rain Light Rain
2:35 AM 46.4 °F 43.5 °F 42.8 °F 87% 30.15 in 10.0 mi NNE 5.8 mph - N/A   Mostly Cloudy
2:55 AM 46.4 °F 44.3 °F 42.8 °F 87% 30.14 in 10.0 mi NNW 4.6 mph - N/A   Mostly Cloudy
3:15 AM 46.4 °F - 42.8 °F 87% 30.16 in 10.0 mi Calm Calm - N/A   Mostly Cloudy
3:35 AM 46.4 °F 43.5 °F 42.8 °F 87% 30.14 in 10.0 mi North 5.8 mph - N/A   Overcast
3:55 AM 46.4 °F 42.9 °F 42.8 °F 87% 30.15 in 10.0 mi NNW 6.9 mph - N/A   Overcast
4:15 AM 46.4 °F 43.5 °F 42.8 °F 87% 30.16 in 10.0 mi North 5.8 mph - N/A   Overcast
4:35 AM 46.4 °F 41.5 °F 41.0 °F 81% 30.15 in 10.0 mi NNW 10.4 mph - N/A   Mostly Cloudy
4:55 AM 46.4 °F 42.9 °F 41.0 °F 81% 30.17 in 10.0 mi North 6.9 mph - N/A   Overcast
5:35 AM 46.4 °F 44.3 °F 39.2 °F 76% 30.18 in 10.0 mi NNW 4.6 mph - N/A   Overcast
5:55 AM 46.4 °F 45.2 °F 39.2 °F 76% 30.18 in 10.0 mi North 3.5 mph - N/A   Overcast
6:15 AM 46.4 °F 43.5 °F 39.2 °F 76% 30.18 in 10.0 mi North 5.8 mph - N/A   Overcast
6:35 AM 46.4 °F 43.5 °F 39.2 °F 76% 30.18 in 10.0 mi North 5.8 mph - N/A   Partly Cloudy
6:55 AM 46.4 °F 44.3 °F 39.2 °F 76% 30.19 in 10.0 mi North 4.6 mph - N/A   Scattered Clouds
7:15 AM 46.4 °F 45.2 °F 39.2 °F 76% 30.20 in 10.0 mi NNW 3.5 mph - N/A   Partly Cloudy
7:35 AM 44.6 °F 40.2 °F 37.4 °F 76% 30.21 in 10.0 mi NNW 8.1 mph - N/A   Clear
7:55 AM 44.6 °F 41.4 °F 37.4 °F 76% 30.20 in 10.0 mi NNW 5.8 mph - N/A   Mostly Cloudy
8:15 AM 44.6 °F 43.1 °F 37.4 °F 76% 30.22 in 10.0 mi North 3.5 mph - N/A   Mostly Cloudy
8:35 AM 44.6 °F 43.1 °F 37.4 °F 76% 30.23 in 10.0 mi North 3.5 mph - N/A   Partly Cloudy
8:55 AM 44.6 °F 42.2 °F 37.4 °F 76% 30.24 in 10.0 mi North 4.6 mph - N/A   Partly Cloudy
9:15 AM 44.6 °F - 35.6 °F 71% 30.26 in 10.0 mi Calm Calm - N/A   Scattered Clouds
9:35 AM 46.4 °F 43.5 °F 35.6 °F 66% 30.25 in 10.0 mi North 5.8 mph 18.4 mph N/A   Mostly Cloudy
9:55 AM 46.4 °F 42.9 °F 35.6 °F 66% 30.26 in 10.0 mi North 6.9 mph 19.6 mph N/A   Mostly Cloudy
10:15 AM 48.2 °F - 35.6 °F 62% 30.26 in 10.0 mi North 8.1 mph 16.1 mph N/A   Scattered Clouds
10:35 AM 48.2 °F - 35.6 °F 62% 30.26 in 10.0 mi North 11.5 mph 21.9 mph N/A   Partly Cloudy
10:55 AM 48.2 °F - 35.6 °F 62% 30.26 in 10.0 mi NNW 10.4 mph 19.6 mph N/A   Partly Cloudy
11:15 AM 48.2 °F - 35.6 °F 62% 30.25 in 10.0 mi NNW 5.8 mph - N/A   Mostly Cloudy
11:35 AM 48.2 °F - 35.6 °F 62% 30.26 in 10.0 mi NNW 9.2 mph 16.1 mph N/A   Overcast
11:55 AM 50.0 °F - 35.6 °F 58% 30.27 in 10.0 mi NNW 5.8 mph - N/A   Mostly Cloudy
12:15 PM 50.0 °F - 35.6 °F 58% 30.28 in 10.0 mi North 4.6 mph - N/A   Overcast
12:35 PM 51.8 °F - 35.6 °F 54% 30.27 in 10.0 mi North 5.8 mph 18.4 mph N/A   Overcast
12:55 PM 51.8 °F - 35.6 °F 54% 30.25 in 10.0 mi NW 10.4 mph 16.1 mph N/A   Overcast
1:15 PM 53.6 °F - 35.6 °F 51% 30.24 in 10.0 mi North 6.9 mph - N/A   Overcast
1:35 PM 53.6 °F - 35.6 °F 51% 30.24 in 10.0 mi NNE 5.8 mph - N/A   Overcast
1:55 PM 53.6 °F - 35.6 °F 51% 30.24 in 10.0 mi NW 6.9 mph - N/A   Overcast
2:15 PM 53.6 °F - 35.6 °F 51% 30.23 in 10.0 mi North 5.8 mph - N/A   Overcast
2:35 PM 55.4 °F - 35.6 °F 47% 30.22 in 10.0 mi North 6.9 mph - N/A   Overcast
2:55 PM 55.4 °F - 33.8 °F 44% 30.21 in 10.0 mi North 4.6 mph - N/A   Overcast
3:15 PM 55.4 °F - 33.8 °F 44% 30.21 in 10.0 mi NNW 9.2 mph 17.3 mph N/A   Overcast
3:35 PM 57.2 °F - 35.6 °F 44% 30.22 in 10.0 mi North 8.1 mph - N/A   Scattered Clouds
3:55 PM 55.4 °F - 33.8 °F 44% 30.21 in 10.0 mi NNW 8.1 mph 24.2 mph N/A   Clear
4:15 PM 55.4 °F - 32.0 °F 41% 30.21 in 10.0 mi NNW 10.4 mph 17.3 mph N/A   Clear
4:35 PM 55.4 °F - 32.0 °F 41% 30.21 in 10.0 mi NNW 4.6 mph - N/A   Clear
4:55 PM 55.4 °F - 32.0 °F 41% 30.22 in 10.0 mi NNE 5.8 mph - N/A   Clear
5:15 PM 55.4 °F - 32.0 °F 41% 30.22 in 10.0 mi North 6.9 mph - N/A   Clear
5:35 PM 53.6 °F - 30.2 °F 41% 30.22 in 10.0 mi North 5.8 mph - N/A   Clear
5:55 PM 53.6 °F - 32.0 °F 44% 30.22 in 10.0 mi North 6.9 mph - N/A   Clear
6:15 PM 53.6 °F - 32.0 °F 44% 30.22 in 10.0 mi North 3.5 mph - N/A   Clear
6:35 PM 51.8 °F - 32.0 °F 47% 30.23 in 10.0 mi Calm Calm - N/A   Clear
6:55 PM 48.2 °F - 33.8 °F 58% 30.24 in 10.0 mi Calm Calm - N/A   Clear
7:15 PM 46.4 °F - 35.6 °F 66% 30.25 in 10.0 mi Calm Calm - N/A   Clear
7:35 PM 44.6 °F - 37.4 °F 76% 30.25 in 10.0 mi Calm Calm - N/A   Clear
7:55 PM 42.8 °F - 37.4 °F 81% 30.26 in 10.0 mi Calm Calm - N/A   Clear
8:15 PM 42.8 °F - 37.4 °F 81% 30.25 in 10.0 mi Calm Calm - N/A   Clear
8:35 PM 42.8 °F - 35.6 °F 76% 30.25 in 10.0 mi Calm Calm - N/A   Clear
8:55 PM 44.6 °F - 33.8 °F 66% 30.26 in 10.0 mi Calm Calm - N/A   Clear
9:15 PM 46.4 °F - 32.0 °F 57% 30.27 in 10.0 mi Calm Calm - N/A   Clear
9:35 PM 46.4 °F - 32.0 °F 57% 30.27 in 10.0 mi Calm Calm - N/A   Clear
9:55 PM 46.4 °F 44.3 °F 32.0 °F 57% 30.28 in 10.0 mi North 4.6 mph - N/A   Clear
10:35 PM 46.4 °F - 32.0 °F 57% 30.28 in 10.0 mi Calm Calm - N/A   Clear
10:55 PM 46.4 °F 45.2 °F 32.0 °F 57% 30.29 in 10.0 mi NNW 3.5 mph - N/A   Clear
11:15 PM 44.6 °F - 32.0 °F 61% 30.29 in 10.0 mi Calm Calm - N/A   Clear
11:35 PM 44.6 °F - 32.0 °F 61% 30.30 in 10.0 mi Calm Calm - N/A   Clear
11:55 PM 44.6 °F - 32.0 °F 61% 30.30 in 10.0 mi Calm Calm - N/A   Clear